Вернуться в каталог

STARLINK-35468

АктивенСвязьVLEO
NORAD 66118·PAYLOAD·🇺🇸 United States

Запущен Oct 22, 2025 с Vandenberg Space Force Base

Loading…

Ближайшие Пролёты (ближайшие 24 часа)

TLE

СвежийSource: CelesTrak SupGP

Эпоха: Sep 14, 2026, 21:37 UTC

1 66118C 25237E   26257.90118056  .00045758  00000+0  13519-2 0  2579
2 66118  53.1579 239.6834 0001311  93.5249 309.6434 15.34369119    19

Отслеживайте STARLINK-35468 в реальном времени с AllMySat

Download on the App Store